Time,TemperatureF,DewpointF,PressureIn,WindDirection,WindDirectionDegrees,WindSpeedMPH,WindSpeedGustMPH,Humidity,HourlyPrecipIn,Conditions,Clouds,dailyrainin,SoftwareType,DateUTC
2013-02-28 00:01:00,31.7,28.3,29.94,WSW,239,1.0,3.0,87,0.00,,,0.06,Wunderground v.1.15,2013-02-28 06:01:00,
2013-02-28 00:11:00,31.7,28.0,29.94,WNW,284,1.0,1.0,86,0.00,,,0.00,Wunderground v.1.15,2013-02-28 06:11:00,
2013-02-28 00:16:00,31.7,28.3,29.94,North,352,1.0,1.0,87,0.00,,,0.00,Wunderground v.1.15,2013-02-28 06:16:00,
2013-02-28 00:21:00,31.7,28.3,29.94,WNW,300,1.0,1.0,87,0.00,,,0.00,Wunderground v.1.15,2013-02-28 06:21:00,
2013-02-28 00:26:00,31.7,28.0,29.94,WSW,255,1.0,1.0,86,0.00,,,0.00,Wunderground v.1.15,2013-02-28 06:26:00,
2013-02-28 00:31:00,31.7,28.3,29.95,West,259,1.0,1.0,87,0.00,,,0.00,Wunderground v.1.15,2013-02-28 06:31:00,
2013-02-28 00:36:00,31.7,28.3,29.95,West,271,0.0,1.0,87,0.00,,,0.00,Wunderground v.1.15,2013-02-28 06:36:00,
2013-02-28 00:41:00,31.7,28.3,29.95,WSW,256,1.0,1.0,87,0.00,,,0.00,Wunderground v.1.15,2013-02-28 06:41:00,
2013-02-28 00:46:00,31.7,28.3,29.95,NW,314,1.0,1.0,87,0.00,,,0.00,Wunderground v.1.15,2013-02-28 06:46:00,
2013-02-28 00:51:00,31.7,28.0,29.95,South,171,1.0,1.0,86,0.00,,,0.00,Wunderground v.1.15,2013-02-28 06:51:00,
2013-02-28 00:56:00,31.7,28.0,29.95,WNW,293,1.0,1.0,86,0.00,,,0.00,Wunderground v.1.15,2013-02-28 06:56:00,
2013-02-28 01:01:00,31.7,28.3,29.95,WNW,294,1.0,2.0,87,0.00,,,0.00,Wunderground v.1.15,2013-02-28 07:01:00,
2013-02-28 01:06:00,31.7,28.3,29.95,NW,305,1.0,2.0,87,0.00,,,0.00,Wunderground v.1.15,2013-02-28 07:06:00,
2013-02-28 01:11:00,31.7,28.0,29.95,WNW,295,1.0,1.0,86,0.00,,,0.00,Wunderground v.1.15,2013-02-28 07:11:00,
2013-02-28 01:16:00,31.7,28.3,29.96,SW,227,1.0,1.0,87,0.00,,,0.00,Wunderground v.1.15,2013-02-28 07:16:00,
2013-02-28 01:21:00,31.7,28.3,29.95,WNW,294,0.0,0.0,87,0.00,,,0.00,Wunderground v.1.15,2013-02-28 07:21:00,
2013-02-28 01:26:00,31.6,28.2,29.95,West,280,0.0,0.0,87,0.00,,,0.00,Wunderground v.1.15,2013-02-28 07:26:00,
2013-02-28 01:36:00,31.6,28.2,29.95,WNW,300,0.0,1.0,87,0.00,,,0.00,Wunderground v.1.15,2013-02-28 07:36:00,
2013-02-28 01:41:00,31.6,28.2,29.95,West,273,0.0,0.0,87,0.00,,,0.00,Wunderground v.1.15,2013-02-28 07:41:00,
2013-02-28 01:46:00,31.6,28.2,29.95,WNW,297,0.0,0.0,87,0.00,,,0.00,Wunderground v.1.15,2013-02-28 07:46:00,
2013-02-28 01:51:00,31.6,28.2,29.95,SW,234,0.0,1.0,87,0.00,,,0.00,Wunderground v.1.15,2013-02-28 07:51:00,
2013-02-28 01:56:00,31.6,28.2,29.95,West,281,1.0,2.0,87,0.00,,,0.00,Wunderground v.1.15,2013-02-28 07:56:00,
2013-02-28 02:01:00,31.6,28.2,29.95,West,264,1.0,2.0,87,0.00,,,0.00,Wunderground v.1.15,2013-02-28 08:01:00,
2013-02-28 02:06:00,31.6,28.2,29.95,WNW,300,1.0,2.0,87,0.00,,,0.00,Wunderground v.1.15,2013-02-28 08:06:00,
2013-02-28 02:11:00,31.6,28.2,29.95,WSW,249,1.0,1.0,87,0.00,,,0.00,Wunderground v.1.15,2013-02-28 08:11:00,
2013-02-28 02:16:00,31.6,28.5,29.95,NW,308,1.0,1.0,88,0.00,,,0.00,Wunderground v.1.15,2013-02-28 08:16:00,
2013-02-28 02:21:00,31.6,28.2,29.95,WSW,249,1.0,3.0,87,0.00,,,0.00,Wunderground v.1.15,2013-02-28 08:21:00,
2013-02-28 02:26:00,31.6,28.2,29.95,WSW,245,1.0,3.0,87,0.00,,,0.00,Wunderground v.1.15,2013-02-28 08:26:00,
2013-02-28 02:31:00,31.6,28.2,29.95,WNW,285,1.0,1.0,87,0.00,,,0.00,Wunderground v.1.15,2013-02-28 08:31:00,
2013-02-28 02:36:00,31.6,28.2,29.95,WSW,253,1.0,1.0,87,0.00,,,0.00,Wunderground v.1.15,2013-02-28 08:36:00,
2013-02-28 02:41:00,31.6,28.5,29.95,WSW,252,1.0,1.0,88,0.00,,,0.00,Wunderground v.1.15,2013-02-28 08:41:00,
2013-02-28 02:46:00,31.6,28.2,29.95,WSW,256,1.0,6.0,87,0.00,,,0.00,Wunderground v.1.15,2013-02-28 08:46:00,
2013-02-28 02:51:00,31.6,28.2,29.95,WNW,290,1.0,1.0,87,0.00,,,0.00,Wunderground v.1.15,2013-02-28 08:51:00,
2013-02-28 02:56:00,31.6,28.2,29.95,WSW,256,1.0,1.0,87,0.00,,,0.00,Wunderground v.1.15,2013-02-28 08:56:00,
2013-02-28 03:01:00,31.6,28.5,29.95,West,274,1.0,1.0,88,0.00,,,0.00,Wunderground v.1.15,2013-02-28 09:01:00,
2013-02-28 03:06:00,31.6,28.5,29.95,WNW,301,1.0,1.0,88,0.00,,,0.00,Wunderground v.1.15,2013-02-28 09:06:00,
2013-02-28 03:11:00,31.6,28.5,29.96,West,274,0.0,0.0,88,0.00,,,0.00,Wunderground v.1.15,2013-02-28 09:11:00,
2013-02-28 03:21:00,31.6,28.5,29.96,WSW,242,0.0,0.0,88,0.00,,,0.00,Wunderground v.1.15,2013-02-28 09:21:00,
2013-02-28 03:26:00,31.6,28.5,29.96,WSW,257,0.0,0.0,88,0.00,,,0.00,Wunderground v.1.15,2013-02-28 09:26:00,
2013-02-28 03:31:00,31.5,28.4,29.96,WNW,293,0.0,0.0,88,0.00,,,0.00,Wunderground v.1.15,2013-02-28 09:31:00,
2013-02-28 03:36:00,31.5,28.4,29.96,North,355,0.0,0.0,88,0.00,,,0.00,Wunderground v.1.15,2013-02-28 09:36:00,
2013-02-28 03:41:00,31.6,28.5,29.97,WSW,256,1.0,1.0,88,0.00,,,0.00,Wunderground v.1.15,2013-02-28 09:41:00,
2013-02-28 03:46:00,31.5,28.4,29.97,West,280,1.0,1.0,88,0.00,,,0.00,Wunderground v.1.15,2013-02-28 09:46:00,
2013-02-28 03:51:00,31.6,28.5,29.97,WNW,282,0.0,0.0,88,0.00,,,0.00,Wunderground v.1.15,2013-02-28 09:51:00,
2013-02-28 03:56:00,31.5,28.4,29.97,West,262,1.0,3.0,88,0.00,,,0.00,Wunderground v.1.15,2013-02-28 09:56:00,
2013-02-28 04:01:00,31.6,28.5,29.97,NW,311,1.0,1.0,88,0.00,,,0.00,Wunderground v.1.15,2013-02-28 10:01:00,
2013-02-28 04:06:00,31.6,28.5,29.98,West,278,1.0,1.0,88,0.00,,,0.00,Wunderground v.1.15,2013-02-28 10:06:00,
2013-02-28 04:11:00,31.6,28.5,29.98,WNW,290,1.0,2.0,88,0.00,,,0.00,Wunderground v.1.15,2013-02-28 10:11:00,
2013-02-28 04:16:00,31.6,28.5,29.98,WSW,243,0.0,4.0,88,0.00,,,0.00,Wunderground v.1.15,2013-02-28 10:16:00,
2013-02-28 04:21:00,31.6,28.5,29.98,WNW,298,1.0,1.0,88,0.00,,,0.00,Wunderground v.1.15,2013-02-28 10:21:00,
2013-02-28 04:26:00,31.6,28.5,29.98,WNW,283,1.0,1.0,88,0.00,,,0.00,Wunderground v.1.15,2013-02-28 10:26:00,
2013-02-28 04:36:00,31.6,28.5,29.99,West,271,0.0,1.0,88,0.00,,,0.00,Wunderground v.1.15,2013-02-28 10:36:00,
2013-02-28 04:41:00,31.6,28.5,29.99,NW,309,0.0,1.0,88,0.00,,,0.00,Wunderground v.1.15,2013-02-28 10:41:00,
2013-02-28 04:46:00,31.6,28.5,29.99,WNW,282,0.0,1.0,88,0.00,,,0.00,Wunderground v.1.15,2013-02-28 10:46:00,
2013-02-28 04:51:00,31.6,28.5,29.99,WSW,255,0.0,0.0,88,0.00,,,0.00,Wunderground v.1.15,2013-02-28 10:51:00,
2013-02-28 05:01:00,31.6,28.5,29.99,NNW,340,0.0,0.0,88,0.00,,,0.00,Wunderground v.1.15,2013-02-28 11:01:00,
2013-02-28 05:06:00,31.6,28.5,30.00,WNW,301,1.0,1.0,88,0.00,,,0.00,Wunderground v.1.15,2013-02-28 11:06:00,
2013-02-28 05:11:00,31.6,28.5,30.00,WSW,242,1.0,1.0,88,0.00,,,0.00,Wunderground v.1.15,2013-02-28 11:11:00,
2013-02-28 05:16:00,31.6,28.5,30.00,WNW,302,0.0,1.0,88,0.00,,,0.00,Wunderground v.1.15,2013-02-28 11:16:00,
2013-02-28 05:26:00,31.6,28.5,30.00,West,277,0.0,1.0,88,0.00,,,0.00,Wunderground v.1.15,2013-02-28 11:26:00,
2013-02-28 05:31:00,31.7,28.6,30.00,WSW,255,0.0,0.0,88,0.00,,,0.00,Wunderground v.1.15,2013-02-28 11:31:00,
2013-02-28 05:36:00,31.6,28.2,30.00,NW,306,0.0,0.0,87,0.00,,,0.00,Wunderground v.1.15,2013-02-28 11:36:00,
2013-02-28 05:41:00,31.7,28.6,30.00,WSW,248,0.0,1.0,88,0.00,,,0.00,Wunderground v.1.15,2013-02-28 11:41:00,
2013-02-28 05:46:00,31.7,28.6,30.01,WNW,298,0.0,1.0,88,0.00,,,0.00,Wunderground v.1.15,2013-02-28 11:46:00,
2013-02-28 05:51:00,31.7,28.3,30.01,West,278,1.0,1.0,87,0.00,,,0.00,Wunderground v.1.15,2013-02-28 11:51:00,
2013-02-28 05:56:00,31.7,28.6,30.01,WNW,301,0.0,1.0,88,0.00,,,0.00,Wunderground v.1.15,2013-02-28 11:56:00,
2013-02-28 06:01:00,31.7,28.6,30.01,West,281,0.0,0.0,88,0.00,,,0.00,Wunderground v.1.15,2013-02-28 12:01:00,
2013-02-28 06:11:00,31.8,28.7,30.01,WNW,293,0.0,2.0,88,0.00,,,0.00,Wunderground v.1.15,2013-02-28 12:11:00,
2013-02-28 06:16:00,31.8,28.7,30.02,West,281,1.0,2.0,88,0.00,,,0.00,Wunderground v.1.15,2013-02-28 12:16:00,
2013-02-28 06:21:00,31.8,28.7,30.02,WNW,302,1.0,1.0,88,0.00,,,0.00,Wunderground v.1.15,2013-02-28 12:21:00,
2013-02-28 06:26:00,31.8,28.4,30.02,WNW,293,0.0,1.0,87,0.00,,,0.00,Wunderground v.1.15,2013-02-28 12:26:00,
2013-02-28 06:31:00,31.8,28.7,30.02,WNW,297,1.0,1.0,88,0.00,,,0.00,Wunderground v.1.15,2013-02-28 12:31:00,
2013-02-28 06:36:00,31.8,28.7,30.02,NW,308,1.0,1.0,88,0.00,,,0.00,Wunderground v.1.15,2013-02-28 12:36:00,
2013-02-28 06:41:00,31.7,28.6,30.02,West,272,0.0,2.0,88,0.00,,,0.00,Wunderground v.1.15,2013-02-28 12:41:00,
2013-02-28 06:46:00,31.7,28.6,30.02,SSW,201,1.0,2.0,88,0.00,,,0.00,Wunderground v.1.15,2013-02-28 12:46:00,
2013-02-28 06:51:00,31.7,28.6,30.02,WNW,293,0.0,0.0,88,0.00,,,0.00,Wunderground v.1.15,2013-02-28 12:51:00,
2013-02-28 06:56:00,31.7,28.6,30.02,West,270,0.0,0.0,88,0.00,,,0.00,Wunderground v.1.15,2013-02-28 12:56:00,
2013-02-28 07:01:00,31.7,28.6,30.03,NW,315,0.0,0.0,88,0.00,,,0.00,Wunderground v.1.15,2013-02-28 13:01:00,
2013-02-28 07:06:00,31.7,28.6,30.03,WNW,300,0.0,0.0,88,0.00,,,0.00,Wunderground v.1.15,2013-02-28 13:06:00,
2013-02-28 07:16:00,31.7,28.6,30.03,WNW,293,1.0,2.0,88,0.00,,,0.00,Wunderground v.1.15,2013-02-28 13:16:00,
2013-02-28 07:21:00,31.8,28.7,30.04,West,279,1.0,1.0,88,0.00,,,0.00,Wunderground v.1.15,2013-02-28 13:21:00,
2013-02-28 07:26:00,31.8,28.7,30.04,WNW,303,1.0,1.0,88,0.00,,,0.00,Wunderground v.1.15,2013-02-28 13:26:00,
2013-02-28 07:36:00,31.8,28.7,30.04,WSW,245,1.0,1.0,88,0.00,,,0.00,Wunderground v.1.15,2013-02-28 13:36:00,
2013-02-28 07:46:00,31.9,28.8,30.05,West,263,1.0,2.0,88,0.00,,,0.00,Wunderground v.1.15,2013-02-28 13:46:00,
2013-02-28 07:51:00,32.0,28.8,30.05,WNW,291,1.0,1.0,88,0.00,,,0.00,Wunderground v.1.15,2013-02-28 13:51:00,
2013-02-28 07:56:00,32.0,28.8,30.05,WSW,240,0.0,2.0,88,0.00,,,0.00,Wunderground v.1.15,2013-02-28 13:56:00,
2013-02-28 08:01:00,32.1,28.9,30.05,NW,312,0.0,4.0,88,0.00,,,0.00,Wunderground v.1.15,2013-02-28 14:01:00,
2013-02-28 08:06:00,32.1,28.9,30.05,West,270,1.0,4.0,88,0.00,,,0.00,Wunderground v.1.15,2013-02-28 14:06:00,
2013-02-28 08:11:00,32.2,29.0,30.05,West,277,1.0,2.0,88,0.00,,,0.00,Wunderground v.1.15,2013-02-28 14:11:00,
2013-02-28 08:16:00,32.2,29.0,30.06,WSW,246,0.0,2.0,88,0.00,,,0.00,Wunderground v.1.15,2013-02-28 14:16:00,
2013-02-28 08:21:00,32.2,29.0,30.06,WSW,243,0.0,0.0,88,0.00,,,0.00,Wunderground v.1.15,2013-02-28 14:21:00,
2013-02-28 08:26:00,32.3,29.1,30.06,WSW,242,0.0,2.0,88,0.00,,,0.00,Wunderground v.1.15,2013-02-28 14:26:00,
2013-02-28 08:31:00,32.3,29.1,30.06,West,260,0.0,1.0,88,0.00,,,0.00,Wunderground v.1.15,2013-02-28 14:31:00,
2013-02-28 08:36:00,32.4,29.2,30.06,NW,318,0.0,1.0,88,0.00,,,0.00,Wunderground v.1.15,2013-02-28 14:36:00,
2013-02-28 08:41:00,32.4,29.2,30.06,WSW,250,0.0,0.0,88,0.00,,,0.00,Wunderground v.1.15,2013-02-28 14:41:00,
2013-02-28 08:51:00,32.5,29.3,30.06,WSW,251,0.0,0.0,88,0.00,,,0.00,Wunderground v.1.15,2013-02-28 14:51:00,
2013-02-28 08:56:00,32.5,29.3,30.06,NW,318,1.0,2.0,88,0.00,,,0.00,Wunderground v.1.15,2013-02-28 14:56:00,
2013-02-28 09:01:00,32.6,29.4,30.06,West,278,0.0,0.0,88,0.00,,,0.00,Wunderground v.1.15,2013-02-28 15:01:00,
2013-02-28 09:06:00,32.7,29.5,30.06,WNW,302,0.0,0.0,88,0.00,,,0.00,Wunderground v.1.15,2013-02-28 15:06:00,
2013-02-28 09:11:00,32.8,29.6,30.06,NW,311,1.0,2.0,88,0.00,,,0.00,Wunderground v.1.15,2013-02-28 15:11:00,
2013-02-28 09:16:00,32.9,29.7,30.07,NNW,341,0.0,2.0,88,0.00,,,0.00,Wunderground v.1.15,2013-02-28 15:16:00,
2013-02-28 09:26:00,33.1,29.7,30.07,NW,319,0.0,2.0,87,0.00,,,0.00,Wunderground v.1.15,2013-02-28 15:26:00,
2013-02-28 09:31:00,33.1,29.9,30.07,West,270,1.0,2.0,88,0.00,,,0.00,Wunderground v.1.15,2013-02-28 15:31:00,
2013-02-28 09:36:00,33.3,30.1,30.07,ENE,57,1.0,2.0,88,0.00,,,0.00,Wunderground v.1.15,2013-02-28 15:36:00,
2013-02-28 09:41:00,33.3,30.1,30.07,WNW,302,1.0,1.0,88,0.00,,,0.00,Wunderground v.1.15,2013-02-28 15:41:00,
2013-02-28 09:46:00,33.5,30.0,30.07,NW,311,1.0,1.0,87,0.00,,,0.00,Wunderground v.1.15,2013-02-28 15:46:00,
2013-02-28 09:51:00,33.7,30.5,30.07,WNW,295,1.0,1.0,88,0.00,,,0.00,Wunderground v.1.15,2013-02-28 15:51:00,
2013-02-28 09:56:00,33.8,30.1,30.07,NW,319,1.0,1.0,86,0.00,,,0.00,Wunderground v.1.15,2013-02-28 15:56:00,
2013-02-28 10:01:00,34.0,30.5,30.07,NNW,342,1.0,2.0,87,0.00,,,0.00,Wunderground v.1.15,2013-02-28 16:01:00,
2013-02-28 10:06:00,34.1,30.4,30.07,WNW,287,1.0,5.0,86,0.00,,,0.00,Wunderground v.1.15,2013-02-28 16:06:00,
2013-02-28 10:11:00,34.2,30.2,30.07,WNW,302,2.0,2.0,85,0.00,,,0.00,Wunderground v.1.15,2013-02-28 16:11:00,
2013-02-28 10:16:00,34.3,30.5,30.08,WNW,287,1.0,2.0,86,0.00,,,0.00,Wunderground v.1.15,2013-02-28 16:16:00,
2013-02-28 10:21:00,34.4,30.6,30.08,WNW,302,1.0,1.0,86,0.00,,,0.00,Wunderground v.1.15,2013-02-28 16:21:00,
2013-02-28 10:26:00,34.4,30.4,30.08,West,277,1.0,2.0,85,0.00,,,0.00,Wunderground v.1.15,2013-02-28 16:26:00,
2013-02-28 10:31:00,34.3,30.3,30.08,WNW,285,1.0,1.0,85,0.00,,,0.00,Wunderground v.1.15,2013-02-28 16:31:00,
2013-02-28 10:36:00,34.2,30.2,30.08,West,281,1.0,1.0,85,0.00,,,0.00,Wunderground v.1.15,2013-02-28 16:36:00,
2013-02-28 10:41:00,34.3,30.5,30.08,NNW,335,1.0,1.0,86,0.00,,,0.00,Wunderground v.1.15,2013-02-28 16:41:00,
2013-02-28 10:46:00,34.3,30.3,30.08,WNW,288,1.0,1.0,85,0.00,,,0.00,Wunderground v.1.15,2013-02-28 16:46:00,
2013-02-28 10:51:00,34.1,30.1,30.08,WNW,285,1.0,1.0,85,0.00,,,0.00,Wunderground v.1.15,2013-02-28 16:51:00,
2013-02-28 10:56:00,34.1,30.1,30.09,WNW,297,1.0,1.0,85,0.00,,,0.00,Wunderground v.1.15,2013-02-28 16:56:00,
2013-02-28 11:01:00,34.1,30.1,30.09,WNW,290,1.0,1.0,85,0.00,,,0.00,Wunderground v.1.15,2013-02-28 17:01:00,
2013-02-28 11:06:00,34.1,30.1,30.09,West,278,1.0,2.0,85,0.00,,,0.00,Wunderground v.1.15,2013-02-28 17:06:00,
2013-02-28 11:16:00,34.0,29.7,30.10,WNW,295,1.0,3.0,84,0.00,,,0.00,Wunderground v.1.15,2013-02-28 17:16:00,
2013-02-28 11:21:00,33.9,29.6,30.10,NNE,15,2.0,2.0,84,0.00,,,0.00,Wunderground v.1.15,2013-02-28 17:21:00,
2013-02-28 11:26:00,33.9,29.6,30.09,NNW,338,2.0,2.0,84,0.00,,,0.00,Wunderground v.1.15,2013-02-28 17:26:00,
2013-02-28 11:31:00,34.0,29.7,30.09,SSE,163,1.0,1.0,84,0.00,,,0.00,Wunderground v.1.15,2013-02-28 17:31:00,
2013-02-28 11:36:00,34.2,29.6,30.10,WNW,299,1.0,1.0,83,0.00,,,0.00,Wunderground v.1.15,2013-02-28 17:36:00,
2013-02-28 11:41:00,34.3,30.0,30.10,NW,320,1.0,1.0,84,0.00,,,0.00,Wunderground v.1.15,2013-02-28 17:41:00,
2013-02-28 11:46:00,34.5,29.9,30.10,West,267,1.0,3.0,83,0.00,,,0.00,Wunderground v.1.15,2013-02-28 17:46:00,
2013-02-28 11:51:00,34.5,29.9,30.10,NW,309,1.0,1.0,83,0.00,,,0.00,Wunderground v.1.15,2013-02-28 17:51:00,
2013-02-28 11:56:00,34.5,29.9,30.10,NNW,331,1.0,1.0,83,0.00,,,0.00,Wunderground v.1.15,2013-02-28 17:56:00,
2013-02-28 12:06:00,34.7,29.8,30.09,West,276,1.0,1.0,82,0.00,,,0.00,Wunderground v.1.15,2013-02-28 18:06:00,
2013-02-28 12:16:00,34.9,30.0,30.09,WNW,288,1.0,1.0,82,0.00,,,0.00,Wunderground v.1.15,2013-02-28 18:16:00,
2013-02-28 12:21:00,34.9,30.0,30.09,WSW,243,1.0,2.0,82,0.00,,,0.00,Wunderground v.1.15,2013-02-28 18:21:00,
2013-02-28 12:26:00,35.0,30.1,30.09,WSW,253,1.0,2.0,82,0.00,,,0.00,Wunderground v.1.15,2013-02-28 18:26:00,
2013-02-28 12:31:00,35.0,30.1,30.09,NNW,329,1.0,1.0,82,0.00,,,0.00,Wunderground v.1.15,2013-02-28 18:31:00,
2013-02-28 12:41:00,35.0,29.8,30.09,West,275,1.0,3.0,81,0.00,,,0.00,Wunderground v.1.15,2013-02-28 18:41:00,
2013-02-28 12:51:00,34.9,29.7,30.09,NNW,328,1.0,1.0,81,0.00,,,0.00,Wunderground v.1.15,2013-02-28 18:51:00,
2013-02-28 12:56:00,34.7,29.5,30.09,NW,315,1.0,2.0,81,0.00,,,0.00,Wunderground v.1.15,2013-02-28 18:56:00,
2013-02-28 13:01:00,34.6,30.0,30.09,WNW,293,1.0,1.0,83,0.00,,,0.00,Wunderground v.1.15,2013-02-28 19:01:00,
2013-02-28 13:06:00,34.6,29.7,30.09,NW,314,1.0,1.0,82,0.00,,,0.00,Wunderground v.1.15,2013-02-28 19:06:00,
2013-02-28 13:11:00,34.5,29.3,30.09,West,263,1.0,1.0,81,0.00,,,0.00,Wunderground v.1.15,2013-02-28 19:11:00,
2013-02-28 13:16:00,34.3,29.1,30.09,NW,315,1.0,1.0,81,0.00,,,0.00,Wunderground v.1.15,2013-02-28 19:16:00,
2013-02-28 13:21:00,34.2,29.3,30.09,WNW,293,1.0,1.0,82,0.00,,,0.00,Wunderground v.1.15,2013-02-28 19:21:00,
2013-02-28 13:26:00,34.2,29.3,30.09,WNW,301,1.0,1.0,82,0.00,,,0.00,Wunderground v.1.15,2013-02-28 19:26:00,
2013-02-28 13:31:00,34.4,29.5,30.09,WSW,245,1.0,1.0,82,0.00,,,0.00,Wunderground v.1.15,2013-02-28 19:31:00,
2013-02-28 13:36:00,34.4,29.2,30.09,West,277,1.0,3.0,81,0.00,,,0.00,Wunderground v.1.15,2013-02-28 19:36:00,
2013-02-28 13:41:00,34.4,29.5,30.09,West,278,1.0,2.0,82,0.00,,,0.00,Wunderground v.1.15,2013-02-28 19:41:00,
2013-02-28 13:46:00,34.5,29.6,30.09,West,266,1.0,2.0,82,0.00,,,0.00,Wunderground v.1.15,2013-02-28 19:46:00,
2013-02-28 13:56:00,34.7,29.5,30.09,West,270,0.0,1.0,81,0.00,,,0.00,Wunderground v.1.15,2013-02-28 19:56:00,
2013-02-28 14:01:00,34.7,29.5,30.09,NW,319,0.0,1.0,81,0.00,,,0.00,Wunderground v.1.15,2013-02-28 20:01:00,
2013-02-28 14:06:00,34.6,29.1,30.09,NNW,342,1.0,1.0,80,0.00,,,0.00,Wunderground v.1.15,2013-02-28 20:06:00,
2013-02-28 14:11:00,34.5,29.0,30.10,West,269,2.0,2.0,80,0.00,,,0.00,Wunderground v.1.15,2013-02-28 20:11:00,
2013-02-28 14:16:00,34.6,29.4,30.10,West,274,1.0,2.0,81,0.00,,,0.00,Wunderground v.1.15,2013-02-28 20:16:00,
2013-02-28 14:21:00,34.7,29.2,30.10,NW,322,0.0,0.0,80,0.00,,,0.00,Wunderground v.1.15,2013-02-28 20:21:00,
2013-02-28 14:26:00,34.8,29.6,30.10,NW,323,0.0,0.0,81,0.00,,,0.00,Wunderground v.1.15,2013-02-28 20:26:00,
2013-02-28 14:31:00,34.9,29.4,30.10,NW,304,0.0,0.0,80,0.00,,,0.00,Wunderground v.1.15,2013-02-28 20:31:00,
2013-02-28 14:36:00,35.0,29.5,30.10,WNW,301,0.0,0.0,80,0.00,,,0.00,Wunderground v.1.15,2013-02-28 20:36:00,
2013-02-28 14:41:00,35.1,29.6,30.10,NW,318,0.0,0.0,80,0.00,,,0.00,Wunderground v.1.15,2013-02-28 20:41:00,
2013-02-28 14:46:00,35.1,29.2,30.10,NW,304,1.0,1.0,79,0.00,,,0.00,Wunderground v.1.15,2013-02-28 20:46:00,
2013-02-28 14:51:00,35.1,29.2,30.10,SW,214,1.0,1.0,79,0.00,,,0.00,Wunderground v.1.15,2013-02-28 20:51:00,
2013-02-28 14:56:00,35.1,29.2,30.10,NNW,335,1.0,1.0,79,0.00,,,0.00,Wunderground v.1.15,2013-02-28 20:56:00,
2013-02-28 15:01:00,35.1,28.9,30.10,NW,318,1.0,1.0,78,0.00,,,0.00,Wunderground v.1.15,2013-02-28 21:01:00,
2013-02-28 15:06:00,35.1,29.6,30.10,North,11,0.0,1.0,80,0.00,,,0.00,Wunderground v.1.15,2013-02-28 21:06:00,
2013-02-28 15:11:00,35.1,29.2,30.10,NE,47,1.0,1.0,79,0.00,,,0.00,Wunderground v.1.15,2013-02-28 21:11:00,
2013-02-28 15:16:00,35.1,29.2,30.10,West,276,1.0,2.0,79,0.00,,,0.00,Wunderground v.1.15,2013-02-28 21:16:00,
2013-02-28 15:21:00,35.1,29.6,30.10,NW,308,1.0,1.0,80,0.00,,,0.00,Wunderground v.1.15,2013-02-28 21:21:00,
2013-02-28 15:31:00,35.3,30.1,30.11,NW,308,0.0,0.0,81,0.00,,,0.00,Wunderground v.1.15,2013-02-28 21:31:00,
2013-02-28 15:36:00,35.5,29.9,30.11,NW,324,0.0,0.0,80,0.00,,,0.00,Wunderground v.1.15,2013-02-28 21:36:00,
2013-02-28 15:41:00,35.3,29.1,30.11,North,351,1.0,1.0,78,0.00,,,0.00,Wunderground v.1.15,2013-02-28 21:41:00,
2013-02-28 15:46:00,35.1,28.9,30.11,North,358,1.0,1.0,78,0.00,,,0.00,Wunderground v.1.15,2013-02-28 21:46:00,
2013-02-28 15:51:00,35.1,29.2,30.11,WNW,290,0.0,3.0,79,0.00,,,0.00,Wunderground v.1.15,2013-02-28 21:51:00,
2013-02-28 15:56:00,34.9,29.0,30.11,WNW,282,0.0,3.0,79,0.00,,,0.00,Wunderground v.1.15,2013-02-28 21:56:00,
2013-02-28 16:01:00,34.9,29.0,30.11,WSW,252,1.0,2.0,79,0.00,,,0.00,Wunderground v.1.15,2013-02-28 22:01:00,
2013-02-28 16:06:00,34.9,29.0,30.11,West,269,1.0,2.0,79,0.00,,,0.00,Wunderground v.1.15,2013-02-28 22:06:00,
2013-02-28 16:11:00,35.0,29.1,30.12,West,271,1.0,1.0,79,0.00,,,0.00,Wunderground v.1.15,2013-02-28 22:11:00,
2013-02-28 16:16:00,35.0,29.1,30.12,NW,319,1.0,4.0,79,0.00,,,0.00,Wunderground v.1.15,2013-02-28 22:16:00,
2013-02-28 16:21:00,34.9,29.0,30.12,WNW,291,1.0,1.0,79,0.00,,,0.00,Wunderground v.1.15,2013-02-28 22:21:00,
2013-02-28 16:26:00,34.9,29.0,30.12,WNW,297,1.0,1.0,79,0.00,,,0.00,Wunderground v.1.15,2013-02-28 22:26:00,
2013-02-28 16:31:00,34.9,29.4,30.12,WSW,256,1.0,1.0,80,0.00,,,0.00,Wunderground v.1.15,2013-02-28 22:31:00,
2013-02-28 16:41:00,34.9,29.0,30.12,West,268,1.0,2.0,79,0.00,,,0.00,Wunderground v.1.15,2013-02-28 22:41:00,
2013-02-28 16:51:00,34.7,28.5,30.12,WNW,301,1.0,1.0,78,0.00,,,0.00,Wunderground v.1.15,2013-02-28 22:51:00,
2013-02-28 16:56:00,34.5,28.7,30.12,WNW,297,1.0,1.0,79,0.00,,,0.00,Wunderground v.1.15,2013-02-28 22:56:00,
2013-02-28 17:01:00,34.5,29.0,30.12,West,260,0.0,1.0,80,0.00,,,0.00,Wunderground v.1.15,2013-02-28 23:01:00,
2013-02-28 17:06:00,34.4,28.9,30.12,NNW,333,1.0,1.0,80,0.00,,,0.00,Wunderground v.1.15,2013-02-28 23:06:00,
2013-02-28 17:11:00,34.4,28.9,30.12,NW,326,1.0,1.0,80,0.00,,,0.00,Wunderground v.1.15,2013-02-28 23:11:00,
2013-02-28 17:16:00,34.4,28.9,30.12,WNW,283,1.0,1.0,80,0.00,,,0.00,Wunderground v.1.15,2013-02-28 23:16:00,
2013-02-28 17:26:00,34.3,28.8,30.13,North,1,1.0,1.0,80,0.00,,,0.00,Wunderground v.1.15,2013-02-28 23:26:00,
2013-02-28 17:31:00,34.3,28.8,30.13,NW,310,0.0,0.0,80,0.00,,,0.00,Wunderground v.1.15,2013-02-28 23:31:00,
2013-02-28 17:41:00,34.3,29.1,30.13,WNW,290,0.0,0.0,81,0.00,,,0.00,Wunderground v.1.15,2013-02-28 23:41:00,
2013-02-28 17:46:00,34.3,29.1,30.13,WNW,287,0.0,0.0,81,0.00,,,0.00,Wunderground v.1.15,2013-02-28 23:46:00,
2013-02-28 17:51:00,34.3,28.8,30.13,West,277,0.0,0.0,80,0.00,,,0.00,Wunderground v.1.15,2013-02-28 23:51:00,
2013-02-28 17:56:00,34.2,29.0,30.13,WNW,302,0.0,1.0,81,0.00,,,0.00,Wunderground v.1.15,2013-02-28 23:56:00,
2013-02-28 18:01:00,34.2,29.0,30.13,West,261,0.0,0.0,81,0.00,,,0.00,Wunderground v.1.15,2013-03-01 00:01:00,
2013-02-28 18:11:00,34.2,29.0,30.13,West,281,0.0,1.0,81,0.00,,,0.00,Wunderground v.1.15,2013-03-01 00:11:00,
2013-02-28 18:16:00,34.2,29.0,30.13,West,277,0.0,2.0,81,0.00,,,0.00,Wunderground v.1.15,2013-03-01 00:16:00,
2013-02-28 18:21:00,34.2,29.0,30.13,West,270,0.0,0.0,81,0.00,,,0.00,Wunderground v.1.15,2013-03-01 00:21:00,
2013-02-28 18:26:00,34.2,29.0,30.13,SW,236,0.0,0.0,81,0.00,,,0.00,Wunderground v.1.15,2013-03-01 00:26:00,
2013-02-28 18:31:00,34.1,28.9,30.14,West,270,0.0,0.0,81,0.00,,,0.00,Wunderground v.1.15,2013-03-01 00:31:00,
2013-02-28 18:41:00,34.0,29.1,30.14,West,277,0.0,0.0,82,0.00,,,0.00,Wunderground v.1.15,2013-03-01 00:41:00,
2013-02-28 18:46:00,34.0,29.4,30.14,West,279,0.0,0.0,83,0.00,,,0.00,Wunderground v.1.15,2013-03-01 00:46:00,
2013-02-28 18:51:00,33.9,29.3,30.14,West,274,0.0,0.0,83,0.00,,,0.00,Wunderground v.1.15,2013-03-01 00:51:00,
2013-02-28 18:56:00,33.8,29.5,30.14,West,263,0.0,0.0,84,0.00,,,0.00,Wunderground v.1.15,2013-03-01 00:56:00,
2013-02-28 19:06:00,33.6,29.6,30.15,NW,316,0.0,0.0,85,0.00,,,0.00,Wunderground v.1.15,2013-03-01 01:06:00,
2013-02-28 19:11:00,33.5,29.8,30.14,WNW,298,0.0,0.0,86,0.00,,,0.00,Wunderground v.1.15,2013-03-01 01:11:00,
2013-02-28 19:16:00,33.4,29.7,30.14,WNW,297,0.0,0.0,86,0.00,,,0.00,Wunderground v.1.15,2013-03-01 01:16:00,
2013-02-28 19:21:00,33.4,29.7,30.15,West,270,0.0,0.0,86,0.00,,,0.00,Wunderground v.1.15,2013-03-01 01:21:00,
2013-02-28 19:31:00,33.2,29.8,30.15,WNW,284,0.0,0.0,87,0.00,,,0.00,Wunderground v.1.15,2013-03-01 01:31:00,
2013-02-28 19:36:00,33.1,29.9,30.15,WNW,284,0.0,0.0,88,0.00,,,0.00,Wunderground v.1.15,2013-03-01 01:36:00,
2013-02-28 19:41:00,33.1,29.9,30.15,NNW,342,0.0,0.0,88,0.00,,,0.00,Wunderground v.1.15,2013-03-01 01:41:00,
2013-02-28 19:51:00,32.9,30.0,30.15,West,266,0.0,0.0,89,0.00,,,0.00,Wunderground v.1.15,2013-03-01 01:51:00,
2013-02-28 19:56:00,32.9,30.0,30.15,NW,304,0.0,0.0,89,0.00,,,0.00,Wunderground v.1.15,2013-03-01 01:56:00,
2013-02-28 20:01:00,32.8,29.9,30.15,WNW,293,0.0,0.0,89,0.00,,,0.00,Wunderground v.1.15,2013-03-01 02:01:00,
2013-02-28 20:06:00,32.8,29.9,30.15,West,281,0.0,0.0,89,0.00,,,0.00,Wunderground v.1.15,2013-03-01 02:06:00,
2013-02-28 20:11:00,32.8,30.2,30.14,WSW,252,0.0,0.0,90,0.00,,,0.00,Wunderground v.1.15,2013-03-01 02:11:00,
2013-02-28 20:16:00,32.7,30.1,30.14,West,259,0.0,0.0,90,0.00,,,0.00,Wunderground v.1.15,2013-03-01 02:16:00,
2013-02-28 20:21:00,32.7,30.1,30.15,WNW,297,0.0,0.0,90,0.00,,,0.00,Wunderground v.1.15,2013-03-01 02:21:00,
2013-02-28 20:26:00,32.7,30.1,30.15,West,271,0.0,0.0,90,0.00,,,0.00,Wunderground v.1.15,2013-03-01 02:26:00,
2013-02-28 20:31:00,32.6,30.0,30.15,West,270,0.0,0.0,90,0.00,,,0.00,Wunderground v.1.15,2013-03-01 02:31:00,
2013-02-28 20:36:00,32.5,30.2,30.15,WNW,297,0.0,0.0,91,0.00,,,0.00,Wunderground v.1.15,2013-03-01 02:36:00,
2013-02-28 20:41:00,32.5,29.9,30.15,WNW,301,0.0,0.0,90,0.00,,,0.00,Wunderground v.1.15,2013-03-01 02:41:00,
2013-02-28 20:46:00,32.5,30.2,30.15,West,281,0.0,0.0,91,0.00,,,0.00,Wunderground v.1.15,2013-03-01 02:46:00,
2013-02-28 20:51:00,32.4,30.1,30.15,WNW,286,0.0,0.0,91,0.00,,,0.00,Wunderground v.1.15,2013-03-01 02:51:00,
2013-02-28 20:56:00,32.4,29.8,30.15,West,259,0.0,1.0,90,0.00,,,0.00,Wunderground v.1.15,2013-03-01 02:56:00,
2013-02-28 21:01:00,32.4,29.8,30.15,WNW,302,0.0,0.0,90,0.00,,,0.00,Wunderground v.1.15,2013-03-01 03:01:00,
2013-02-28 21:06:00,32.4,29.8,30.15,West,281,0.0,0.0,90,0.00,,,0.00,Wunderground v.1.15,2013-03-01 03:06:00,
2013-02-28 21:11:00,32.4,29.8,30.15,NNE,13,0.0,0.0,90,0.00,,,0.00,Wunderground v.1.15,2013-03-01 03:11:00,
2013-02-28 21:16:00,32.4,30.1,30.15,WSW,256,0.0,2.0,91,0.00,,,0.00,Wunderground v.1.15,2013-03-01 03:16:00,
2013-02-28 21:21:00,32.4,29.8,30.15,NW,308,0.0,0.0,90,0.00,,,0.00,Wunderground v.1.15,2013-03-01 03:21:00,
2013-02-28 21:26:00,32.4,29.8,30.15,West,267,0.0,0.0,90,0.00,,,0.00,Wunderground v.1.15,2013-03-01 03:26:00,
2013-02-28 21:31:00,32.3,29.7,30.15,West,262,0.0,0.0,90,0.00,,,0.00,Wunderground v.1.15,2013-03-01 03:31:00,
2013-02-28 21:36:00,32.4,29.8,30.15,WNW,302,0.0,0.0,90,0.00,,,0.00,Wunderground v.1.15,2013-03-01 03:36:00,
2013-02-28 21:41:00,32.4,29.8,30.15,WSW,246,0.0,0.0,90,0.00,,,0.00,Wunderground v.1.15,2013-03-01 03:41:00,
2013-02-28 21:51:00,32.4,30.1,30.15,WNW,301,0.0,0.0,91,0.00,,,0.00,Wunderground v.1.15,2013-03-01 03:51:00,
2013-02-28 21:56:00,32.3,30.0,30.15,NW,304,0.0,0.0,91,0.00,,,0.00,Wunderground v.1.15,2013-03-01 03:56:00,
2013-02-28 22:01:00,32.3,30.0,30.15,WNW,302,0.0,0.0,91,0.00,,,0.00,Wunderground v.1.15,2013-03-01 04:01:00,
2013-02-28 22:11:00,32.3,30.0,30.15,West,263,0.0,0.0,91,0.00,,,0.00,Wunderground v.1.15,2013-03-01 04:11:00,
2013-02-28 22:16:00,32.3,30.0,30.15,WNW,293,0.0,0.0,91,0.00,,,0.00,Wunderground v.1.15,2013-03-01 04:16:00,
2013-02-28 22:26:00,32.2,29.9,30.15,WSW,248,0.0,0.0,91,0.00,,,0.00,Wunderground v.1.15,2013-03-01 04:26:00,
2013-02-28 22:31:00,32.2,30.1,30.15,West,281,0.0,0.0,92,0.00,,,0.00,Wunderground v.1.15,2013-03-01 04:31:00,
2013-02-28 22:36:00,32.1,30.0,30.15,WNW,295,0.0,0.0,92,0.00,,,0.00,Wunderground v.1.15,2013-03-01 04:36:00,
2013-02-28 22:41:00,32.1,30.0,30.15,WSW,250,0.0,0.0,92,0.00,,,0.00,Wunderground v.1.15,2013-03-01 04:41:00,
2013-02-28 22:51:00,32.0,29.9,30.14,WNW,282,0.0,0.0,92,0.00,,,0.00,Wunderground v.1.15,2013-03-01 04:51:00,
2013-02-28 22:56:00,31.9,29.8,30.14,WNW,301,0.0,0.0,92,0.00,,,0.00,Wunderground v.1.15,2013-03-01 04:56:00,
2013-02-28 23:01:00,31.9,30.1,30.14,WSW,245,0.0,0.0,93,0.00,,,0.00,Wunderground v.1.15,2013-03-01 05:01:00,
2013-02-28 23:06:00,31.9,30.1,30.14,West,280,0.0,0.0,93,0.00,,,0.00,Wunderground v.1.15,2013-03-01 05:06:00,
2013-02-28 23:11:00,31.8,30.0,30.14,WNW,297,0.0,0.0,93,0.00,,,0.00,Wunderground v.1.15,2013-03-01 05:11:00,
2013-02-28 23:16:00,31.8,30.0,30.14,WNW,293,0.0,0.0,93,0.00,,,0.00,Wunderground v.1.15,2013-03-01 05:16:00,
2013-02-28 23:21:00,31.8,30.0,30.14,WNW,293,0.0,0.0,93,0.00,,,0.00,Wunderground v.1.15,2013-03-01 05:21:00,
2013-02-28 23:26:00,31.8,30.0,30.14,NNW,328,0.0,0.0,93,0.00,,,0.00,Wunderground v.1.15,2013-03-01 05:26:00,
2013-02-28 23:31:00,31.8,30.0,30.14,West,278,0.0,0.0,93,0.00,,,0.00,Wunderground v.1.15,2013-03-01 05:31:00,
2013-02-28 23:36:00,31.8,30.0,30.14,WNW,288,0.0,1.0,93,0.00,,,0.00,Wunderground v.1.15,2013-03-01 05:36:00,
2013-02-28 23:46:00,31.8,30.0,30.13,WNW,297,0.0,0.0,93,0.00,,,0.00,Wunderground v.1.15,2013-03-01 05:46:00,
2013-02-28 23:51:00,31.7,29.9,30.13,WNW,298,0.0,0.0,93,0.00,,,0.00,Wunderground v.1.15,2013-03-01 05:51:00,
2013-02-28 23:56:00,31.7,29.9,30.13,NW,308,0.0,0.0,93,0.00,,,0.00,Wunderground v.1.15,2013-03-01 05:56:00,